EW6030 Weather Reports


Display with metric or nautical units.
time (UTC)temp
F
wind
direction
speed
MPH
gust
MPH
rain 1hr
in
rain 24hr
in
rain mn
in
humidity
%
barometer
mb
20260831100046 69 231 0.0 0.0 0.00 0.00 0.00 71 1007.3
20260831094544 69 231 0.0 0.0 0.00 0.00 0.00 71 1007.5
20260831093044 69 231 0.0 0.0 0.00 0.00 0.00 71 1007.7
20260831091542 70 231 0.0 0.0 0.00 0.00 0.00 71 1007.8
20260831090040 70 231 0.0 0.0 0.00 0.00 0.00 71 1008.1
20260831084538 70 231 0.0 0.0 0.00 0.00 0.00 71 1008.1
20260831083042 69 231 0.0 0.0 0.00 0.00 0.00 71 1008.0
20260831081538 69 231 0.0 0.0 0.00 0.00 0.00 71 1008.1
20260831080037 69 231 0.0 0.0 0.00 0.00 0.00 71 1008.2
20260831074536 69 231 0.0 0.0 0.00 0.00 0.00 71 1008.2
20260831073036 69 231 0.0 0.0 0.00 0.00 0.00 71 1008.2
20260831071534 69 231 0.0 0.0 0.00 0.00 0.00 71 1008.5
20260831070032 69 231 0.0 0.0 0.00 0.00 0.00 71 1008.6
20260831064531 69 231 0.0 0.0 0.00 0.00 0.00 71 1008.8
20260831063028 69 231 0.0 0.0 0.00 0.00 0.00 71 1009.3
20260831061528 69 231 0.0 0.0 0.00 0.00 0.00 71 1009.2
20260831060026 69 231 0.0 0.0 0.00 0.00 0.00 71 1009.5
20260831054529 69 231 0.0 0.0 0.00 0.00 0.00 71 1009.8
20260831053025 69 231 0.0 0.0 0.00 0.00 0.00 71 1009.9
20260831051528 69 231 0.0 0.0 0.00 0.00 0.00 71 1009.9
20260831050025 69 231 0.0 0.0 0.00 0.00 0.00 71 1009.9
20260831044526 70 231 0.0 0.0 0.00 0.00 0.00 71 1009.8
20260831043021 70 231 0.0 0.0 0.00 0.00 0.00 71 1009.8
20260831041550 70 231 0.0 0.0 0.00 0.00 0.00 71 1009.6
20260831040018 70 231 0.0 0.0 0.00 0.00 0.00 71 1009.4
20260831034515 70 231 0.0 0.0 0.00 0.00 0.04 71 1009.6
20260831033020 71 231 0.0 0.0 0.00 0.00 0.03 71 1009.4
20260831031513 71 231 0.0 0.0 0.00 0.00 0.03 71 1009.6
20260831030013 71 231 0.0 0.0 0.00 0.00 0.03 71 1009.7
20260831024513 72 231 0.0 0.0 0.00 0.00 0.02 71 1009.6
20260831023013 72 231 0.0 0.0 0.00 0.00 0.02 71 1009.7
20260831021516 72 232 0.0 0.0 0.00 0.00 0.01 72 1009.2
20260831020013 72 232 0.0 0.0 0.00 0.00 0.00 72 1009.4
20260831014519 72 228 0.0 0.0 0.00 0.00 0.00 73 1009.7
20260831013010 73 228 0.0 0.0 0.00 0.00 0.00 73 1009.5
20260831011519 73 228 0.0 0.0 0.00 0.00 0.00 74 1009.2
20260831010010 73 93 0.0 0.0 0.00 0.00 0.00 74 1008.8
20260831004509 73 69 0.0 0.0 0.00 0.00 0.00 75 1009.1
20260831003010 73 223 0.0 0.0 0.00 0.00 0.00 75 1008.9
20260831001508 73 59 0.0 0.0 0.00 0.00 0.00 75 1009.2
20260831000008 73 65 0.0 0.0 0.00 0.00 0.00 75 1009.1
20260830234510 73 79 0.0 0.0 0.00 0.00 0.00 75 1008.7
20260830233018 74 78 0.0 0.0 0.00 0.00 0.00 75 1008.8
20260830231507 74 14 0.0 0.0 0.00 0.00 0.00 75 1008.8
20260830230007 74 257 0.0 0.0 0.00 0.00 0.00 75 1009.0
20260830224506 74 58 0.0 0.0 0.00 0.00 0.00 74 1008.7
20260830223005 74 58 0.0 0.0 0.00 0.00 0.00 74 1008.6
20260830221507 74 42 0.0 0.0 0.00 0.00 0.00 74 1008.5
20260830220005 74 244 0.0 0.0 0.00 0.00 0.00 74 1008.4
20260830214503 74 244 0.0 0.0 0.00 0.00 0.00 74 1008.5
20260830213007 74 324 0.0 0.0 0.00 0.00 0.00 74 1008.3
20260830211503 74 55 0.0 0.0 0.00 0.00 0.00 74 1008.4
20260830210002 74 55 0.0 0.0 0.00 0.00 0.00 74 1008.6
20260830204502 74 55 0.0 0.0 0.00 0.00 0.00 74 1008.8
20260830203001 74 55 0.0 0.0 0.00 0.00 0.00 75 1008.8
20260830201501 75 55 0.0 0.0 0.00 0.00 0.00 76 1008.7
20260830200001 75 57 0.0 0.0 0.00 0.00 0.00 76 1008.9
20260830194607 76 72 0.0 0.0 0.00 0.00 0.00 76 1008.8
20260830193105 76 57 0.0 0.0 0.00 0.00 0.00 75 1008.7
20260830191601 77 57 1.0 0.0 0.00 0.00 0.00 75 1008.8
20260830190059 77 76 0.0 0.0 0.00 0.00 0.00 74 1008.9
20260830184613 78 53 2.0 0.0 0.00 0.00 0.00 72 1009.5
20260830183106 79 60 2.0 0.0 0.00 0.00 0.00 70 1009.8
20260830181558 80 83 4.0 0.0 0.00 0.00 0.00 67 1009.7
20260830180058 81 70 3.0 0.0 0.00 0.00 0.00 67 1009.5
20260830174601 80 68 1.0 0.0 0.00 0.00 0.00 68 1009.0
20260830173103 80 89 1.0 0.0 0.00 0.00 0.00 68 1008.6
20260830171629 81 74 1.0 0.0 0.00 0.00 0.00 66 1008.3
20260830170055 82 68 2.0 0.0 0.00 0.00 0.00 65 1008.3
20260830164552 81 337 1.0 0.0 0.00 0.00 0.00 66 1008.3
20260830163051 81 49 1.0 0.0 0.00 0.00 0.00 67 1008.3
20260830161550 80 66 1.0 0.0 0.00 0.00 0.00 67 1008.2
20260830160047 80 59 1.0 0.0 0.00 0.00 0.00 67 1008.3
20260830154545 80 71 1.0 0.0 0.00 0.00 0.00 68 1008.3
20260830153043 79 23 0.0 0.0 0.00 0.00 0.00 69 1008.2
20260830151545 78 272 0.0 0.0 0.00 0.00 0.00 69 1008.4
20260830150040 77 250 1.0 0.0 0.00 0.00 0.00 70 1008.7
20260830144544 77 6 1.0 0.0 0.00 0.00 0.00 71 1008.3
20260830143040 76 342 1.0 0.0 0.00 0.00 0.00 70 1008.1
20260830141537 76 218 0.0 0.0 0.00 0.00 0.00 72 1008.2
20260830140030 75 77 1.0 0.0 0.00 0.00 0.00 72 1008.1
20260830134535 74 75 1.0 0.0 0.00 0.00 0.00 73 1008.3
20260830133026 74 53 0.0 0.0 0.00 0.00 0.00 73 1008.3
20260830131523 74 74 1.0 0.0 0.00 0.00 0.00 74 1008.5
20260830130020 73 64 0.0 0.0 0.00 0.00 0.00 75 1008.7
20260830124517 72 71 0.0 0.0 0.00 0.00 0.00 76 1008.8
20260830123024 72 62 0.0 0.0 0.00 0.00 0.00 77 1008.9
20260830121519 71 62 0.0 0.0 0.00 0.00 0.00 77 1008.8
20260830120017 71 60 0.0 0.0 0.00 0.00 0.00 77 1008.6
20260830114519 71 60 0.0 0.0 0.00 0.00 0.00 77 1008.5
20260830113016 72 55 0.0 0.0 0.00 0.00 0.00 76 1008.4
20260830111517 72 106 0.0 0.0 0.00 0.00 0.00 76 1008.4
20260830110014 72 55 0.0 0.0 0.00 0.00 0.00 77 1008.3
20260830104514 71 44 0.0 0.0 0.00 0.00 0.00 77 1008.3
20260830103014 71 44 0.0 0.0 0.00 0.00 0.00 77 1008.3
20260830101513 71 44 0.0 0.0 0.00 0.00 0.00 77 1008.3